Simultaneous Nadir Overpasses (SNOs) Predictions

Prediction of SNOs between NOAA-20 and AQUA Satellite Orbit:

Table of predicted SNOs for the next 14.0 days since TLE Epoch: 8/24/2024
Index Date (NOAA-20) Time (NOAA-20) Lat,Lon (NOAA-20) SZA (NOAA-20 ) Date (AQUA) Time (AQUA) Lat,Lon (AQUA) SZA (AQUA ) Distance(km) Time Diff (sec)
1 08/24/2024 17:30:23 81.31,-156.59 77.05 08/24/2024 17:31:23 81.30,-156.71 77.03 2.19 60
2 08/24/2024 18:21:07 -81.31, 11.29 103.03 08/24/2024 18:20:44 -81.31, 11.13 102.99 2.60 23
3 08/27/2024 05:33:30 -81.31,-156.97 102.18 08/27/2024 05:34:13 -81.31,-157.11 102.18 2.29 43
4 08/27/2024 06:24:14 81.31, 10.46 77.82 08/27/2024 06:23:34 81.31, 10.55 77.83 1.51 40
5 08/29/2024 17:36:36 81.31,-157.54 78.65 08/29/2024 17:37:01 81.32,-157.71 78.66 2.94 25
6 08/29/2024 18:27:22 -81.31, 9.61 101.32 08/29/2024 18:26:23 -81.31, 9.76 101.31 2.60 59
7 09/01/2024 05:39:44 -81.31,-158.45 100.48 09/01/2024 05:39:48 -81.31,-158.48 100.47 0.43 4
8 09/03/2024 16:52:06 -81.31, 33.39 99.60 09/03/2024 16:53:11 -81.31, 33.29 99.63 1.67 65
9 09/03/2024 17:42:50 81.31,-159.25 80.41 09/03/2024 17:42:32 81.31,-159.13 80.40 2.11 18
10 09/06/2024 04:55:12 81.31, 32.48 81.31 09/06/2024 04:55:53 81.31, 32.63 81.26 2.60 41



Historial Predications of SNOs between NOAA-20 and AQUA
